TimeCDT,TemperatureF,Dew PointF,Humidity,Sea Level PressureIn,VisibilityMPH,Wind Direction,Wind SpeedMPH,Gust SpeedMPH,PrecipitationIn,Events,Conditions,WindDirDegrees,DateUTC
12:15 AM,61.7,54.7,78,29.90,10.0,SSE,9.2,-,N/A,,Clear,160,2013-04-07 05:15:00
12:35 AM,61.0,54.7,80,29.91,10.0,SSE,8.1,-,N/A,,Clear,150,2013-04-07 05:35:00
12:55 AM,60.8,54.5,80,29.91,10.0,SSE,9.2,-,N/A,,Clear,150,2013-04-07 05:55:00
1:15 AM,60.3,54.3,81,29.91,10.0,SSE,9.2,-,N/A,,Clear,150,2013-04-07 06:15:00
1:35 AM,59.9,54.3,82,29.90,10.0,SSE,8.1,-,N/A,,Clear,160,2013-04-07 06:35:00
1:55 AM,59.4,54.1,83,29.91,10.0,SSE,8.1,-,N/A,,Clear,160,2013-04-07 06:55:00
2:15 AM,58.8,54.0,84,29.90,10.0,SSE,9.2,-,N/A,,Clear,160,2013-04-07 07:15:00
2:35 AM,59.0,54.1,84,29.90,10.0,South,9.2,-,N/A,,Clear,170,2013-04-07 07:35:00
2:55 AM,58.6,54.0,84,29.90,10.0,SSE,10.4,-,N/A,,Clear,160,2013-04-07 07:55:00
3:15 AM,58.6,54.3,86,29.90,10.0,SSE,9.2,-,N/A,,Clear,160,2013-04-07 08:15:00
3:35 AM,59.4,55.0,86,29.89,10.0,South,10.4,-,N/A,,Mostly Cloudy,170,2013-04-07 08:35:00
3:55 AM,60.1,55.6,85,29.89,10.0,South,12.7,16.1,N/A,,Overcast,170,2013-04-07 08:55:00
4:15 AM,60.8,55.6,83,29.89,10.0,South,12.7,-,N/A,,Overcast,170,2013-04-07 09:15:00
4:35 AM,61.0,55.8,83,29.89,10.0,South,12.7,18.4,N/A,,Overcast,170,2013-04-07 09:35:00
4:55 AM,61.2,55.9,83,29.89,10.0,South,13.8,18.4,N/A,,Overcast,170,2013-04-07 09:55:00
5:15 AM,61.3,55.9,82,29.89,10.0,South,15.0,19.6,N/A,,Overcast,170,2013-04-07 10:15:00
5:35 AM,61.7,56.1,82,29.89,10.0,South,10.4,17.3,N/A,,Overcast,170,2013-04-07 10:35:00
5:55 AM,61.3,56.3,83,29.90,10.0,SSE,9.2,16.1,N/A,,Overcast,160,2013-04-07 10:55:00
6:15 AM,61.3,56.3,83,29.90,10.0,SSE,10.4,-,N/A,,Overcast,160,2013-04-07 11:15:00
6:35 AM,61.2,56.3,84,29.90,10.0,SSE,8.1,-,N/A,,Overcast,160,2013-04-07 11:35:00
6:55 AM,61.3,56.5,84,29.91,10.0,SSE,10.4,-,N/A,,Overcast,160,2013-04-07 11:55:00
7:15 AM,61.3,56.7,85,29.91,10.0,SSE,9.2,-,N/A,,Overcast,150,2013-04-07 12:15:00
7:35 AM,61.5,56.7,84,29.92,10.0,SSE,8.1,-,N/A,,Overcast,150,2013-04-07 12:35:00
7:55 AM,61.7,56.8,84,29.92,10.0,SE,8.1,-,N/A,,Overcast,140,2013-04-07 12:55:00
8:15 AM,61.0,56.7,86,29.93,10.0,SE,8.1,-,N/A,,Overcast,140,2013-04-07 13:15:00
8:35 AM,60.8,57.2,88,29.93,10.0,SE,8.1,-,N/A,,Overcast,140,2013-04-07 13:35:00
8:55 AM,61.0,57.6,88,29.93,10.0,SSE,9.2,-,N/A,,Overcast,150,2013-04-07 13:55:00
9:15 AM,61.3,57.6,87,29.93,10.0,SSE,8.1,-,N/A,,Overcast,150,2013-04-07 14:15:00
9:35 AM,61.7,57.4,86,29.93,10.0,SSE,10.4,-,N/A,,Overcast,150,2013-04-07 14:35:00
9:55 AM,62.8,57.7,84,29.93,10.0,SSE,12.7,-,N/A,,Overcast,160,2013-04-07 14:55:00
10:15 AM,62.8,57.9,84,29.93,10.0,South,12.7,-,N/A,,Overcast,170,2013-04-07 15:15:00
10:35 AM,63.5,58.3,83,29.93,10.0,South,15.0,18.4,N/A,,Overcast,170,2013-04-07 15:35:00
10:55 AM,64.8,58.6,81,29.93,10.0,SSE,13.8,20.7,N/A,,Overcast,160,2013-04-07 15:55:00
11:15 AM,64.8,58.3,79,29.93,10.0,South,17.3,21.9,N/A,,Overcast,170,2013-04-07 16:15:00
11:35 AM,65.3,58.3,78,29.93,10.0,South,13.8,25.3,N/A,,Overcast,180,2013-04-07 16:35:00
11:55 AM,66.2,58.6,77,29.92,10.0,South,17.3,24.2,N/A,,Overcast,170,2013-04-07 16:55:00
12:15 PM,66.6,58.8,76,29.91,10.0,South,18.4,25.3,N/A,,Overcast,170,2013-04-07 17:15:00
12:35 PM,66.4,58.8,77,29.90,10.0,South,12.7,25.3,N/A,,Overcast,170,2013-04-07 17:35:00
12:55 PM,66.9,58.6,75,29.89,10.0,South,16.1,24.2,N/A,,Overcast,180,2013-04-07 17:55:00
1:15 PM,68.0,59.0,73,29.87,10.0,SSE,16.1,25.3,N/A,,Overcast,160,2013-04-07 18:15:00
1:35 PM,68.9,59.2,71,29.87,10.0,SSE,16.1,26.5,N/A,,Overcast,160,2013-04-07 18:35:00
1:55 PM,69.3,59.0,70,29.86,10.0,South,17.3,28.8,N/A,,Overcast,180,2013-04-07 18:55:00
2:15 PM,69.8,59.0,68,29.85,10.0,SSE,17.3,27.6,N/A,,Overcast,160,2013-04-07 19:15:00
2:35 PM,70.0,59.0,68,29.85,10.0,South,18.4,25.3,N/A,,Overcast,170,2013-04-07 19:35:00
2:55 PM,70.2,59.0,68,29.84,10.0,South,17.3,25.3,N/A,,Overcast,170,2013-04-07 19:55:00
3:15 PM,70.3,59.0,67,29.83,10.0,SSE,17.3,28.8,N/A,,Overcast,160,2013-04-07 20:15:00
3:35 PM,70.7,59.0,66,29.82,10.0,South,19.6,27.6,N/A,,Overcast,170,2013-04-07 20:35:00
3:55 PM,70.9,59.2,66,29.81,10.0,South,20.7,26.5,N/A,,Overcast,170,2013-04-07 20:55:00
4:15 PM,70.9,59.4,67,29.80,10.0,South,16.1,24.2,N/A,,Overcast,170,2013-04-07 21:15:00
4:35 PM,72.9,59.5,63,29.79,10.0,SSE,20.7,27.6,N/A,,Overcast,160,2013-04-07 21:35:00
4:55 PM,71.8,59.0,64,29.79,10.0,SSE,16.1,21.9,N/A,,Overcast,160,2013-04-07 21:55:00
5:15 PM,72.5,59.2,63,29.78,10.0,South,18.4,25.3,N/A,,Overcast,170,2013-04-07 22:15:00
5:55 PM,72.5,59.0,62,29.78,10.0,SSE,19.6,23.0,N/A,,Overcast,160,2013-04-07 22:55:00
6:15 PM,72.0,59.2,64,29.78,10.0,SSE,16.1,20.7,N/A,,Overcast,150,2013-04-07 23:15:00
6:35 PM,71.8,59.2,64,29.78,10.0,SSE,10.4,18.4,N/A,,Overcast,150,2013-04-07 23:35:00
6:55 PM,71.6,59.4,65,29.78,10.0,SSE,15.0,20.7,N/A,,Overcast,160,2013-04-07 23:55:00
7:15 PM,71.2,59.2,66,29.77,10.0,SSE,15.0,20.7,N/A,,Overcast,150,2013-04-08 00:15:00
7:35 PM,71.1,59.0,66,29.77,10.0,SSE,13.8,20.7,N/A,,Overcast,150,2013-04-08 00:35:00
7:55 PM,70.7,59.0,66,29.77,10.0,SSE,9.2,16.1,N/A,,Overcast,150,2013-04-08 00:55:00
8:15 PM,70.0,59.0,68,29.78,10.0,SE,9.2,-,N/A,,Overcast,140,2013-04-08 01:15:00
8:35 PM,68.9,59.0,71,29.77,10.0,SE,8.1,-,N/A,,Mostly Cloudy,140,2013-04-08 01:35:00
8:55 PM,68.5,59.0,72,29.78,10.0,SE,6.9,-,N/A,,Scattered Clouds,140,2013-04-08 01:55:00
9:15 PM,68.2,58.8,72,29.78,10.0,SE,9.2,-,N/A,,Scattered Clouds,140,2013-04-08 02:15:00
9:35 PM,68.0,58.5,71,29.77,10.0,SE,11.5,-,N/A,,Clear,140,2013-04-08 02:35:00
9:55 PM,68.2,58.3,71,29.78,10.0,SSE,11.5,-,N/A,,Clear,150,2013-04-08 02:55:00
10:15 PM,68.7,57.9,68,29.78,10.0,SSE,15.0,20.7,N/A,,Clear,160,2013-04-08 03:15:00
10:35 PM,68.5,57.6,68,29.78,10.0,SSE,15.0,-,N/A,,Clear,160,2013-04-08 03:35:00
10:55 PM,68.4,57.6,68,29.78,10.0,SSE,15.0,-,N/A,,Clear,160,2013-04-08 03:55:00
11:15 PM,68.4,57.6,68,29.78,10.0,SSE,17.3,27.6,N/A,,Clear,160,2013-04-08 04:15:00
11:35 PM,68.0,57.4,69,29.78,10.0,SSE,13.8,23.0,N/A,,Clear,160,2013-04-08 04:35:00